Des Moines, IA

1:34 PM CDT on March 23, 2017 (GMT -0500)
Des Moines International

Weather History for KDSM - November, 2013

Change the Weather History Date:

Thursday, November 7, 2013

  Actual Average Record
Temperature  
Mean Temperature 39 °F 44 °F  
Max Temperature 48 °F 53 °F 79 °F (1915)
Min Temperature 30 °F 35 °F -3 °F (1991)
Degree Days  
Heating Degree Days 26 21  
Month to date heating degree days 130 138  
Since 1 July heating degree days 520 622  
Cooling Degree Days 0 0  
Month to date cooling degree days 0 0  
Year to date cooling degree days 1353 1066  
Moisture  
Dew Point 27 °F    
Average Humidity 63    
Maximum Humidity 85    
Minimum Humidity 41    
Precipitation  
Precipitation 0.00 in 0.08 in 1.29 in (1932)
Month to date precipitation 0.70 0.59  
Year to date precipitation 30.52 33.00  
Snow  
Snow 0.00 in 0.00 in 2.20 in (1925)
Month to date snowfall 0.0 0.2  
Since 1 July snowfall 0.0 0.6  
Since 1 September snowfall 0.0 0.6  
Snow Depth 0.00 in    
Sea Level Pressure  
Sea Level Pressure 30.32 in    
Wind  
Wind Speed 8 mph (West)    
Max Wind Speed 22 mph    
Max Gust Speed 24 mph    
Visibility 10 miles    
Events      
T = Trace of Precipitation, MM = Missing Value Source: NWS Daily Summary

Daily Weather History Graph

Daily Weather History Graph

Search for Another Location

Airport or City:

Trip Planner

Search our weather history database for the weather conditions in past years. The results will help you decide how hot, cold, wet, or windy it might be!

Date:

Astronomy

Nov. 07, 2013 Rise Set
Actual Time 6:54 AM CST 5:02 PM CST
Civil Twilight 6:24 AM CST 5:31 PM CST
Nautical Twilight 5:51 AM CST 6:04 PM CST
Astronomical Twilight 5:19 AM CST 6:36 PM CST
Moon 11:03 AM CST (11/7) 9:14 PM CST (11/7)
Length of Visible Light 11h 06m
Length of Day
10h 08m
Waxing Crescent, 23% of the Moon is Illuminated
Nov 7
Waxing Crescent
Nov 9
First Quarter
Nov 17
Full
Nov 25
Last Quarter
Dec 2
New

Hourly Weather History & Observations

Time (CST) Temp. Windchill Dew Point Humidity Pressure Visibility Wind Dir Wind Speed Gust Speed Precip Events Conditions
12:54 AM 30.9 °F 24.3 °F 26.1 °F 82% 30.29 in 10.0 mi SSW 6.9 mph - N/A   Clear
1:54 AM 30.9 °F 25.2 °F 27.0 °F 85% 30.27 in 10.0 mi SW 5.8 mph - N/A   Clear
2:54 AM 30.9 °F 25.2 °F 27.0 °F 85% 30.27 in 10.0 mi SW 5.8 mph - N/A   Clear
3:54 AM 30.9 °F 26.2 °F 27.0 °F 85% 30.27 in 10.0 mi SW 4.6 mph - N/A   Clear
4:54 AM 30.0 °F 25.2 °F 26.1 °F 85% 30.28 in 10.0 mi SW 4.6 mph - N/A   Clear
5:54 AM 30.9 °F 25.2 °F 27.0 °F 85% 30.29 in 10.0 mi West 5.8 mph - N/A   Clear
6:54 AM 30.9 °F 26.2 °F 27.0 °F 85% 30.32 in 10.0 mi WNW 4.6 mph - N/A   Clear
7:54 AM 32.0 °F - 28.0 °F 85% 30.33 in 8.0 mi Calm Calm - N/A   Clear
8:54 AM 35.1 °F 28.6 °F 30.0 °F 82% 30.34 in 10.0 mi NNW 8.1 mph - N/A   Partly Cloudy
9:54 AM 39.0 °F 33.4 °F 30.9 °F 73% 30.34 in 10.0 mi NW 8.1 mph - N/A   Partly Cloudy
10:54 AM 42.1 °F 35.2 °F 30.9 °F 65% 30.35 in 10.0 mi NW 12.7 mph - N/A   Clear
11:54 AM 46.0 °F 39.9 °F 33.1 °F 61% 30.34 in 10.0 mi NW 13.8 mph 20.7 mph N/A   Partly Cloudy
12:54 PM 46.9 °F - 33.1 °F 59% 30.33 in 10.0 mi WNW 18.4 mph 23.0 mph N/A   Scattered Clouds
1:54 PM 46.9 °F - 32.0 °F 56% 30.32 in 10.0 mi NNW 15.0 mph - N/A   Partly Cloudy
2:54 PM 46.9 °F - 32.0 °F 56% 30.33 in 10.0 mi WNW 16.1 mph - N/A   Partly Cloudy
3:54 PM 46.0 °F 39.9 °F 27.0 °F 47% 30.33 in 10.0 mi NW 13.8 mph - N/A   Clear
4:54 PM 44.1 °F 38.6 °F 23.0 °F 43% 30.34 in 10.0 mi NW 10.4 mph - N/A   Clear
5:54 PM 41.0 °F 37.1 °F 23.0 °F 49% 30.36 in 10.0 mi WSW 5.8 mph - N/A   Clear
6:54 PM 37.0 °F 33.3 °F 25.0 °F 62% 30.36 in 10.0 mi West 4.6 mph - N/A   Clear
7:54 PM 37.9 °F 35.5 °F 24.1 °F 57% 30.34 in 10.0 mi WSW 3.5 mph - N/A   Clear
8:54 PM 36.0 °F 31.1 °F 23.0 °F 59% 30.34 in 10.0 mi SW 5.8 mph - N/A   Clear
9:54 PM 35.1 °F 30.1 °F 21.9 °F 59% 30.33 in 10.0 mi SW 5.8 mph - N/A   Clear
10:54 PM 32.0 °F 28.7 °F 23.0 °F 69% 30.32 in 10.0 mi SW 3.5 mph - N/A   Clear
11:54 PM 32.0 °F 26.4 °F 23.0 °F 69% 30.32 in 10.0 mi SW 5.8 mph - N/A   Clear